This is the latest recevied weather packets stored in our database for station/object WZ8H. If no packets are shown the sender has not sent any weather packets the latest 10 day(s).
| Time | Temp. | Humidity | Pressure | Rain* | Wind** | Luminosity | Snow |
|---|---|---|---|---|---|---|---|
| 1778045167 | 8.89° C | 95% | 1007.8 hPa | 2.03 mm | - | 0 W/m² | - |
| 1778044868 | 8.89° C | 95% | 1007.8 hPa | 2.03 mm | - | 0 W/m² | - |
| 1778044569 | 8.89° C | 95% | 1007.9 hPa | 1.78 mm | - | 0 W/m² | - |
| 1778044273 | 8.89° C | 95% | 1007.9 hPa | 1.78 mm | - | 0 W/m² | - |
| 1778043946 | 8.89° C | 95% | 1008 hPa | 1.78 mm | - | 0 W/m² | - |
| 1778043631 | 8.89° C | 95% | 1007.9 hPa | 1.52 mm | - | 0 W/m² | - |
| 1778043307 | 8.89° C | 95% | 1008 hPa | 1.52 mm | - | 0 W/m² | - |
| 1778043008 | 8.89° C | 95% | 1008.1 hPa | 1.02 mm | - | 0 W/m² | - |
| 1778042705 | 8.89° C | 95% | 1008 hPa | 1.27 mm | - | 0 W/m² | - |
| 1778042405 | 8.89° C | 95% | 1008 hPa | 1.02 mm | - | 0 W/m² | - |
| 1778042085 | 8.89° C | 95% | 1008 hPa | 1.27 mm | - | 0 W/m² | - |
| 1778041765 | 8.89° C | 95% | 1008 hPa | 1.27 mm | - | 0 W/m² | - |
| 1778041448 | 8.89° C | 95% | 1008 hPa | 1.27 mm | - | 0 W/m² | - |
| 1778041150 | 9.44° C | 95% | 1008 hPa | 1.02 mm | - | 0 W/m² | - |
| 1778040845 | 9.44° C | 95% | 1008 hPa | 1.27 mm | - | 0 W/m² | - |
| 1778040544 | 9.44° C | 95% | 1008.1 hPa | 1.52 mm | - | 0 W/m² | - |
| 1778040249 | 9.44° C | 95% | 1007.9 hPa | 1.27 mm | - | 0 W/m² | - |
| 1778039941 | 9.44° C | 95% | 1007.6 hPa | 1.27 mm | - | 0 W/m² | - |
| 1778039640 | 9.44° C | 95% | 1007.8 hPa | 1.52 mm | - | 0 W/m² | - |
| 1778039314 | 9.44° C | 95% | 1008 hPa | 1.52 mm | - | 0 W/m² | - |
| 1778038986 | 9.44° C | 95% | 1008.1 hPa | 1.78 mm | - | 0 W/m² | - |
| 1778038683 | 9.44° C | 95% | 1008.2 hPa | 1.78 mm | - | 0 W/m² | - |
| 1778038382 | 9.44° C | 95% | 1008.2 hPa | 1.78 mm | - | 0 W/m² | - |
| 1778038073 | 9.44° C | 95% | 1008.4 hPa | 1.78 mm | - | 0 W/m² | - |
| 1778037773 | 8.89° C | 95% | 1008.5 hPa | 2.03 mm | - | 0 W/m² | - |
* Rain latest hour (hover to see other rain measurements)
** Current wind speed in m/s (hover to see current wind gust speed)